Hourly Weather Qala i Naw

Today, 11 August, Tuesday

Time Temperature Precipitation Wind Pressure Humidity
00:00 +22°C° 0 mm 1 mps 677 mmHg 31%
01:00 +21°C° 0 mm 1 mps 677 mmHg 33%
02:00 +20°C° 0 mm 1 mps 677 mmHg 34%
03:00 +20°C° 0 mm 1 mps 677 mmHg 36%
04:00 +19°C° 0 mm 1 mps 677 mmHg 38%
05:00 +22°C° 0 mm 1 mps 678 mmHg 32%
06:00 +25°C° 0 mm 2 mps 679 mmHg 27%
07:00 +27°C° 0 mm 2 mps 679 mmHg 21%
08:00 +29°C° 0 mm 3 mps 679 mmHg 19%
09:00 +32°C° 0 mm 5 mps 679 mmHg 17%
10:00 +34°C° 0 mm 6 mps 679 mmHg 15%
11:00 +35°C° 0 mm 7 mps 679 mmHg 14%
12:00 +38°C° 0 mm 8 mps 679 mmHg 12%
13:00 +39°C° 0 mm 10 mps 679 mmHg 11%
14:00 +39°C° 0 mm 10 mps 678 mmHg 12%
15:00 +38°C° 0 mm 11 mps 678 mmHg 12%
16:00 +38°C° 0 mm 12 mps 678 mmHg 12%
17:00 +36°C° 0 mm 10 mps 678 mmHg 14%
18:00 +33°C° 0 mm 8 mps 678 mmHg 16%
19:00 +30°C° 0 mm 7 mps 678 mmHg 18%
20:00 +28°C° 0 mm 5 mps 678 mmHg 21%
21:00 +26°C° 0 mm 4 mps 678 mmHg 24%
22:00 +24°C° 0 mm 3 mps 677 mmHg 27%
23:00 +23°C° 0 mm 2 mps 677 mmHg 29%

Tomorrow, 12 August, Wednesday

Time Temperature Precipitation Wind Pressure Humidity
00:00 +21°C° 0 mm 2 mps 677 mmHg 32%
01:00 +21°C° 0 mm 1 mps 677 mmHg 35%
02:00 +20°C° 0 mm 1 mps 676 mmHg 37%
03:00 +19°C° 0 mm 1 mps 676 mmHg 40%
04:00 +19°C° 0 mm 1 mps 676 mmHg 42%
05:00 +21°C° 0 mm 1 mps 677 mmHg 36%
06:00 +24°C° 0 mm 1 mps 677 mmHg 29%
07:00 +26°C° 0 mm 1 mps 678 mmHg 23%
08:00 +28°C° 0 mm 2 mps 678 mmHg 20%
09:00 +30°C° 0 mm 3 mps 678 mmHg 18%
10:00 +33°C° 0 mm 4 mps 679 mmHg 15%
11:00 +35°C° 0 mm 5 mps 679 mmHg 12%
12:00 +36°C° 0 mm 6 mps 678 mmHg 10%
13:00 +39°C° 0 mm 8 mps 678 mmHg 8%
14:00 +39°C° 0 mm 8 mps 678 mmHg 8%
15:00 +39°C° 0 mm 9 mps 678 mmHg 7%
16:00 +39°C° 0 mm 10 mps 677 mmHg 7%
17:00 +35°C° 0 mm 8 mps 677 mmHg 9%
18:00 +32°C° 0 mm 7 mps 677 mmHg 10%
19:00 +28°C° 0 mm 5 mps 677 mmHg 12%
20:00 +26°C° 0 mm 4 mps 677 mmHg 14%
21:00 +24°C° 0 mm 3 mps 677 mmHg 16%
22:00 +22°C° 0 mm 1 mps 677 mmHg 17%
23:00 +22°C° 0 mm 1 mps 677 mmHg 18%

Day after tomorrow, 13 August, Thursday

Time Temperature Precipitation Wind Pressure Humidity
00:00 +21°C° 0 mm 1 mps 677 mmHg 18%
01:00 +21°C° 0 mm 1 mps 677 mmHg 19%
02:00 +20°C° 0 mm 1 mps 676 mmHg 20%
03:00 +20°C° 0 mm 1 mps 676 mmHg 21%
04:00 +19°C° 0 mm 1 mps 676 mmHg 23%
05:00 +22°C° 0 mm 1 mps 677 mmHg 19%
06:00 +25°C° 0 mm 1 mps 678 mmHg 15%
07:00 +25°C° 0 mm 0 mps 678 mmHg 12%
08:00 +29°C° 0 mm 1 mps 679 mmHg 11%
09:00 +32°C° 0 mm 2 mps 679 mmHg 10%
10:00 +35°C° 0 mm 3 mps 679 mmHg 9%
11:00 +36°C° 0 mm 5 mps 679 mmHg 9%
12:00 +39°C° 0 mm 7 mps 678 mmHg 10%
13:00 +40°C° 0 mm 9 mps 678 mmHg 11%
14:00 +40°C° 0 mm 9 mps 678 mmHg 12%
15:00 +40°C° 0 mm 10 mps 678 mmHg 12%
16:00 +41°C° 0 mm 11 mps 677 mmHg 13%
17:00 +38°C° 0 mm 9 mps 677 mmHg 15%
18:00 +35°C° 0 mm 8 mps 677 mmHg 18%
19:00 +32°C° 0 mm 6 mps 677 mmHg 20%
20:00 +29°C° 0 mm 5 mps 677 mmHg 23%
21:00 +28°C° 0 mm 3 mps 677 mmHg 26%
22:00 +26°C° 0 mm 2 mps 677 mmHg 28%
23:00 +25°C° 0 mm 2 mps 677 mmHg 30%

14 August, Friday

Time Temperature Precipitation Wind Pressure Humidity
00:00 +24°C° 0 mm 2 mps 676 mmHg 32%
01:00 +23°C° 0 mm 1 mps 676 mmHg 33%
02:00 +22°C° 0 mm 1 mps 676 mmHg 35%
03:00 +22°C° 0 mm 1 mps 676 mmHg 37%
04:00 +21°C° 0 mm 1 mps 675 mmHg 40%
05:00 +24°C° 0 mm 1 mps 676 mmHg 34%
06:00 +26°C° 0 mm 1 mps 677 mmHg 29%
07:00 +28°C° 0 mm 1 mps 677 mmHg 24%
08:00 +31°C° 0 mm 2 mps 677 mmHg 21%
09:00 +34°C° 0 mm 3 mps 678 mmHg 19%
10:00 +36°C° 0 mm 4 mps 678 mmHg 16%
11:00 +38°C° 0 mm 6 mps 678 mmHg 14%
12:00 +39°C° 0 mm 7 mps 677 mmHg 13%
13:00 +42°C° 0 mm 9 mps 677 mmHg 11%
14:00 +42°C° 0 mm 10 mps 677 mmHg 11%
15:00 +40°C° 0 mm 10 mps 677 mmHg 12%
16:00 +41°C° 0 mm 11 mps 676 mmHg 12%
17:00 +38°C° 0 mm 9 mps 676 mmHg 14%
18:00 +34°C° 0 mm 7 mps 676 mmHg 17%
19:00 +32°C° 0 mm 6 mps 676 mmHg 19%
20:00 +29°C° 0 mm 4 mps 676 mmHg 22%
21:00 +27°C° 0 mm 3 mps 676 mmHg 24%
22:00 +25°C° 0 mm 1 mps 676 mmHg 27%
23:00 +24°C° 0 mm 2 mps 675 mmHg 27%

15 August, Saturday

Time Temperature Precipitation Wind Pressure Humidity
00:00 +24°C° 0 mm 2 mps 675 mmHg 28%
01:00 +23°C° 0 mm 2 mps 675 mmHg 28%
02:00 +23°C° 0 mm 1 mps 675 mmHg 29%
03:00 +22°C° 0 mm 1 mps 674 mmHg 30%
04:00 +21°C° 0 mm 1 mps 674 mmHg 32%
05:00 +24°C° 0 mm 1 mps 675 mmHg 27%
06:00 +26°C° 0 mm 1 mps 675 mmHg 23%
07:00 +29°C° 0 mm 1 mps 676 mmHg 19%
08:00 +31°C° 0 mm 1 mps 676 mmHg 17%
09:00 +34°C° 0 mm 2 mps 676 mmHg 14%
10:00 +36°C° 0 mm 3 mps 676 mmHg 12%
11:00 +38°C° 0 mm 4 mps 676 mmHg 11%
12:00 +40°C° 0 mm 6 mps 676 mmHg 10%
13:00 +43°C° 0 mm 7 mps 676 mmHg 9%
14:00 +43°C° 0 mm 7 mps 676 mmHg 9%
15:00 +43°C° 0 mm 8 mps 676 mmHg 8%
16:00 +43°C° 0 mm 9 mps 675 mmHg 8%
17:00 +39°C° 0 mm 8 mps 675 mmHg 11%
18:00 +35°C° 0 mm 6 mps 675 mmHg 13%
19:00 +32°C° 0 mm 5 mps 675 mmHg 15%
20:00 +29°C° 0 mm 3 mps 675 mmHg 18%
21:00 +27°C° 0 mm 2 mps 675 mmHg 20%
22:00 +25°C° 0 mm 1 mps 675 mmHg 22%
23:00 +25°C° 0 mm 1 mps 674 mmHg 24%

16 August, Sunday

Time Temperature Precipitation Wind Pressure Humidity
00:00 +24°C° 0 mm 1 mps 674 mmHg 25%
01:00 +23°C° 0 mm 1 mps 674 mmHg 26%
02:00 +23°C° 0 mm 1 mps 674 mmHg 27%
03:00 +22°C° 0 mm 1 mps 674 mmHg 28%
04:00 +22°C° 0 mm 1 mps 674 mmHg 28%
05:00 +24°C° 0 mm 1 mps 675 mmHg 25%
06:00 +26°C° 0 mm 2 mps 676 mmHg 23%
07:00 +28°C° 0 mm 2 mps 676 mmHg 20%
08:00 +29°C° 0 mm 3 mps 677 mmHg 19%
09:00 +31°C° 0 mm 3 mps 677 mmHg 18%
10:00 +33°C° 0 mm 4 mps 677 mmHg 18%
11:00 +35°C° 0 mm 4 mps 677 mmHg 16%
12:00 +37°C° 0 mm 4 mps 677 mmHg 14%
13:00 +39°C° 0 mm 5 mps 677 mmHg 12%
14:00 +40°C° 0 mm 6 mps 677 mmHg 12%
15:00 +41°C° 0 mm 7 mps 677 mmHg 11%
16:00 +43°C° 0 mm 8 mps 677 mmHg 11%
17:00 +40°C° 0 mm 7 mps 677 mmHg 13%
18:00 +36°C° 0 mm 6 mps 676 mmHg 16%
19:00 +34°C° 0 mm 5 mps 676 mmHg 18%
20:00 +32°C° 0 mm 5 mps 676 mmHg 21%
21:00 +29°C° 0 mm 4 mps 676 mmHg 23%
22:00 +27°C° 0 mm 3 mps 676 mmHg 26%
23:00 +26°C° 0 mm 3 mps 676 mmHg 28%
Show more